Regional Weather Roundup
Issued by NWS

Home | Current Version | Previous Version | Text Only | Print | Product List | Glossary On
Versions: 1 2 3 4 5 6 7 8 9 10 11 12 13 14 15 16 17 18 19 20 21 22 23 24 25 26 27 28 29 30 31 32 33 34 35 36 37 38 39 40 41 42 43 44 45 46 47 48 49 50
000
ASMX46 KSGX 201610
RWRMX

MEXICAN WEATHER ROUNDUP
NATIONAL WEATHER SERVICE SAN DIEGO CA
900 AM PDT SUN APR 20 2014

BAJA CALIFORNIA

CITY           SKY/WX    TMP DP  RH WIND       PRES   REMARKS
LA PAZ         SUNNY     75  50  41 S9        30.00
LORETO         SUNNY     77  57  50 CALM      29.99R
MEXICALI       SUNNY     72  57  60 SE6       29.99
S.J. DEL CABO  SUNNY     77  54  44 CALM      30.00S
TIJUANA        SUNNY     63  54  72 S3        30.07S

NORTHWESTERN MEXICO

CITY           SKY/WX    TMP DP  RH WIND       PRES   REMARKS
CHIHUAHUA      MOSUNNY   66  39  37 W3        30.19
CULIACAN       PTSUNNY   75  64  69 CALM      29.98
GUAYMAS        SUNNY     81  46  30 CALM      29.92
HERMOSILLO     SUNNY     77  45  31 CALM      30.02
JUAREZ         SUNNY     64  50  59 CALM      30.11
LOS MOCHIS     SUNNY     73  64  73 NW5       29.99R
OBREGON        SUNNY     79  50  36 E2        29.94

NORTHEASTERN MEXICO

CITY           SKY/WX    TMP DP  RH WIND       PRES   REMARKS
MATAMOROS      CLOUDY    77  68  73 SE14      30.12
MONCLOVA       PTSUNNY   77  59  53 CALM      30.06R
MONTERREY      CLOUDY    68  66  94 E5        30.08  FOG
NUEVO LAREDO   CLOUDY    72  66  83 SE12      30.10
PIEDRAS NEGRAS LGT RAIN  66  66 100 E8        30.10S VSB 1/2
REYNOSA        CLOUDY    73  63  68 E12       30.08
SALTILLO       SUNNY     77  61  57 N9        30.22R
TORREON        MOSUNNY   75  52  43 CALM      30.14S
VICTORIA       CLOUDY    73  68  83 SE8G20    30.07

WESTERN MEXICO

CITY           SKY/WX    TMP DP  RH WIND       PRES   REMARKS
AGUASCALIENTES CLOUDY    73  48  40 NW5       30.33
COLIMA         MOSUNNY   77  57  50 CALM      30.05S
DURANGO        SUNNY     68  34  28 SE7       30.29
GUADALAJARA    PTSUNNY   79  43  27 E5        30.24
MANZANILLO     MOSUNNY   81  72  74 S7        29.91R
MAZATLAN       SUNNY     75  63  64 W5        29.95S
PTO. VALLARTA  MOSUNNY   81  70  69 CALM      29.96R
TEPIC          PTSUNNY   75  54  46 CALM      30.17S
URUAPAN        CLOUDY    73  57  56 S7        30.25S
ZACATECAS      PTSUNNY   70  36  28 S6        30.36S

CENTRAL MEXICO

CITY           SKY/WX    TMP DP  RH WIND       PRES   REMARKS
CUERNAVACA     MOSUNNY   77  52  41 S3        30.22S
LEON           CLOUDY    77  46  33 CALM      30.30
MEXICO CITY    PTSUNNY   66  50  55 E3        30.40R
MORELIA        PTSUNNY   70  54  56 VRB2      30.30
POZA RICA      CLOUDY    77  72  83 E7        30.12
PUEBLA         PTSUNNY   66  45  45 CALM      30.41S
QUERETARO      CLOUDY    66  43  42 CALM      30.35R
S. LUIS POTOSI CLOUDY    57  52  82 CALM      30.33R FOG
TAMPICO        CLOUDY    77  70  78 SE9       30.09R
TOLUCA         CLOUDY    61  45  55 CALM      30.41F
VERACRUZ       CLOUDY    79  68  69 SE9       30.08R

SOUTHERN MEXICO

CITY           SKY/WX    TMP DP  RH WIND       PRES   REMARKS
ACAPULCO       MOSUNNY   90  73  58 CALM      29.92S HX  98
B. DE HUATULCO SUNNY     90  75  62 S7        29.96  HX 100
MINATITLAN     MOSUNNY   79  70  73 N12       30.04
OAXACA         PTSUNNY   72  48  43 NW6       30.30S
PTO. ESCONDIDO SUNNY     86  73  66 S9        30.06R
TAPACHULA        N/A    N/A N/A N/A MISG        N/A
TUX. GUTIERREZ MOSUNNY   84  63  48 E5        30.04F
VILLAHERMOSA   PTSUNNY   82  72  69 NE9       30.06S
ZIHUATANEJO    SUNNY     90  70  51 SW7       29.92S HX  95

YUCATAN PENINSULA

CITY           SKY/WX    TMP DP  RH WIND       PRES   REMARKS
CAMPECHE       MOSUNNY   84  72  65 E10       30.04F
CANCUN         MOSUNNY   81  66  61 NE5       30.10S
CHETUMAL       PTSUNNY   84  77  79 N6        30.05S
C. DEL CARMEN  MOSUNNY   81  75  83 SE17      30.03
COZUMEL        MOSUNNY   79  68  69 NE15      30.09S
MERIDA         MOSUNNY   84  61  45 E10       30.08F

$$




USA.gov is the U.S. government's official web portal to all federal, state and local government web resources and services.